Regional Weather Roundup
Issued by NWS

Home | Current Version | Previous Version | Graphics & Text | Print | Product List | Glossary On
Versions: 1 2 3 4 5 6 7 8 9 10 11 12 13 14 15 16 17 18 19 20 21 22 23 24 25 26 27 28 29 30 31 32 33 34 35 36 37 38 39 40 41 42 43 44 45 46 47 48 49 50
121
ASUS43 KIND 091309
RWRIN

WEATHER ROUNDUP FOR INDIANA
NATIONAL WEATHER SERVICE INDIANAPOLIS IN
800 AM EST TUE FEB 09 2016

NOTE: "FAIR" INDICATES FEW OR NO CLOUDS BELOW 12,000 FEET WITH NO
SIGNIFICANT WEATHER AND/OR OBSTRUCTIONS TO VISIBILITY.

* - STATION DOES NOT REPORT WEATHER SUCH AS PRECIPITATION OR FOG.

+ - STATION NOT QUALITY CONTROLLED BY THE NATIONAL WEATHER SERVICE.
    USE DATA WITH CAUTION...ESPECIALLY DEWPOINT AND RELATIVE
    HUMIDITY OBSERVATIONS.

INZ001>003-010>013-019-020-091400-
NORTHWEST INDIANA

CITY           SKY/WX    TMP DP  RH WIND       PRES   REMARKS
GARY /AIRPORT/ FLURRIES  21  14  73 W15       29.78R WCI   8
KNOX *+        CLOUDY    21  18  86 W15       29.72S WCI   8
LA PORTE +     LGT SNOW  26  26 100 NW14      29.71R WCI  14
MICHIGAN CITY+ LGT SNOW  27  27 100 NW13G22   29.73R WCI  16
MONTICELLO +   LGT SNOW  20  15  81 W16       29.75R WCI   6
RENSSELAER +   LGT SNOW  21  16  79 W13G21    29.77R WCI   9
VALPARAISO     LGT SNOW  20  17  88 W12       29.74R WCI   8

$$

LMZ046-743>745-091400-
SOUTHERN LAKE MICHIGAN

STATION/POSITION TIME  TEMP    WIND        PRES    WAVE
                       AIR SEA DIR/SP/G            HT
                 (UTC) (F)     (DEG/KT/KT) (MB)    (FT)
BURNS HARBOR     1220   23     300/ 18/ 23 1007.5R
MICHIGAN CITY    1200   25     280/ 23/ 26   N/A

$$

INZ004-005-014>016-021>024-091400-
NORTH CENTRAL INDIANA

CITY           SKY/WX    TMP DP  RH WIND       PRES   REMARKS
GOSHEN         LGT SNOW  26  23  88 W8        29.66R FOG     WCI  18
LOGANSPORT +   LGT SNOW  21  16  79 W12       29.74R WCI   9
PERU/GRISSOM   LGT SNOW  21  19  91 W15       29.70R FOG     WCI   8
ROCHESTER +    LGT SNOW  23  18  80 W15       29.70S WCI  10
SOUTH BEND     FLURRIES  26  23  88 NW14G24   29.69R WCI  14
WARSAW +       LGT SNOW  23  19  86 W16       29.67R WCI  10

$$

INZ006>009-017-018-025>027-091400-
NORTHEAST INDIANA

CITY           SKY/WX    TMP DP  RH WIND       PRES   REMARKS
ANGOLA *+      CLOUDY    28  27  93 W7        29.60R WCI  21
AUBURN +       CLOUDY    27  23  86 W7        29.64R WCI  19
FORT WAYNE     LGT SNOW  26  20  77 W17       29.67R WCI  13
HUNTINGTON +   LGT SNOW  22  17  80 W10G20    29.68R WCI  11

$$

INZ028-029-035-036-043>045-051>053-091400-
WEST CENTRAL INDIANA

CITY           SKY/WX    TMP DP  RH WIND       PRES   REMARKS
GREENCASTLE +  CLOUDY    19  10  68 W7        29.79R WCI  10
LAFAYETTE      FLURRIES  19  15  84 W13       29.78R WCI   6
TERRE HAUTE    CLOUDY    19  14  81 W7        29.83R WCI  10

$$

INZ030>032-037>040-046>048-054>057-064-065-091400-
CENTRAL INDIANA

CITY           SKY/WX    TMP DP  RH WIND       PRES   REMARKS
FISHERS *+     CLOUDY    19  18  93 W13       29.76  WCI   7
FRANKFORT +    LGT SNOW  20  12  71 W15G21    29.77R WCI   7
GREENWOOD *+   CLOUDY    21  19  93 W14       29.77R WCI   8
INDIANAPOLIS   FLURRIES  20  15  81 W10       29.75S WCI   9
-EAGLE CREEK   LGT SNOW  20  16  84 W12       29.76R FOG     WCI   8
KOKOMO *+      CLOUDY    21  16  79 W18       29.72R WCI   6
MARION +       LGT SNOW  21  14  73 W18       29.71S WCI   6
MT COMFORT *+  CLOUDY    19  16  86 W10       29.75R WCI   8
SHELBYVILLE    LGT SNOW  22  17  81 W13       29.75R WCI  10
ZIONSVILLE +   LGT SNOW  19  15  86 W13G18    29.75R WCI   6

$$

INZ033-034-041-042-049-050-058-059-091400-
EAST CENTRAL INDIANA

CITY           SKY/WX    TMP DP  RH WIND       PRES   REMARKS
MUNCIE         LGT SNOW  22  17  81 W12       29.71R WCI  10

$$

INZ060-061-067>069-081>083-085>088-091400-
SOUTHWEST INDIANA

CITY           SKY/WX    TMP DP  RH WIND       PRES   REMARKS
EVANSVILLE     CLOUDY    23  13  65 W8        29.89R WCI  14
HUNTINGBURG *+ CLOUDY    21  12  68 NW10      29.86R WCI  10
WASHINGTON +   LGT SNOW  20  15  81 W7        29.85R WCI  11

$$

INZ062-063-066-070>080-084-089>092-091400-
SOUTH CENTRAL AND SOUTHEAST INDIANA

CITY           SKY/WX    TMP DP  RH WIND       PRES   REMARKS
BLOOMINGTON    CLOUDY    19  15  84 W7        29.79R WCI  10
MADISON *+     CLOUDY    21  18  86 W6        29.80S WCI  14
NORTH VERNON + LGT SNOW  21  19  93 CALM      29.78R
SEYMOUR +      LGT SNOW  23  18  80 W8        29.81R WCI  14

$$





USA.gov is the U.S. government's official web portal to all federal, state and local government web resources and services.